Regional Weather Roundup
Issued by NWS

Home | Current Version | Previous Version | Text Only | Print | Product List | Glossary On
Versions: 1 2 3 4 5 6 7 8 9 10 11 12 13 14 15 16 17 18 19 20 21 22 23 24 25 26 27 28 29 30 31 32 33 34 35 36 37 38 39 40 41 42 43 44 45 46 47 48 49 50
000
ASUS45 KCYS 301210
RWRWY

WYOMING REGIONAL WEATHER ROUNDUP
NATIONAL WEATHER SERVICE CHEYENNE WY
600 AM MDT THU MAR 30 2017

NOTE:  "FAIR" INDICATES FEW OR NO CLOUDS BELOW 12,000 FEET
WITH NO SIGNIFICANT WEATHER AND/OR OBSTRUCTIONS TO VISIBILITY.

WYZ001-301300-
YELLOWSTONE NATIONAL PARK

CITY           SKY/WX    TMP DP  RH WIND       PRES   REMARKS
LK YELLOWSTONE   N/A     31  31 100 CALM      29.80F
6HR MIN TEMP:  30; 6HR MAX TEMP:  32; 6HR PCP:  0.10;

W YELLOWSTONE  NOT AVBL

$$
WYZ002>013-054>058-071-098>099-301300-
NORTHERN WYOMING

CITY           SKY/WX    TMP DP  RH WIND       PRES   REMARKS
JACKSON        CLOUDY    34  34 100 SW9       29.82F WCI  26
CODY           MOCLDY    46  33  60 S10       29.74F
GREYBULL       MOCLDY    40  33  76 SE3       29.72F
6HR MIN TEMP:  40; 6HR MAX TEMP:  48;

WORLAND        FAIR      36  34  92 E5        29.72F WCI  32
6HR MIN TEMP:  36; 6HR MAX TEMP:  45;

SHERIDAN       MOCLDY    39  34  82 CALM      29.73F
6HR MIN TEMP:  38; 6HR MAX TEMP:  45;

BUFFALO        FAIR      44  30  57 W6        29.75F
6HR MIN TEMP:  41; 6HR MAX TEMP:  47;

GILLETTE       FAIR      40  36  86 S15       29.75S WCI  32
6HR MIN TEMP:  39; 6HR MAX TEMP:  43;

HULETT         FAIR      45  36  70 W6        29.76F
NEWCASTLE      FAIR      43  34  70 E15       29.78F

$$
WYZ014>020-022>026-101>103-301300-
CENTRAL WYOMING

CITY           SKY/WX    TMP DP  RH WIND       PRES   REMARKS
BIG PINEY      CLOUDY    35  32  88 CALM      29.86F
6HR MIN TEMP:  32; 6HR MAX TEMP:  38; 6HR PCP: TRACE;

PINEDALE       LGT SNOW  32  32 100 SE6       29.88F WCI  26
DUBOIS         CLOUDY    36  32  87 CALM      29.78F
LANDER         FAIR      44  33  65 N9        29.74F
6HR MIN TEMP:  41; 6HR MAX TEMP:  47;

RIVERTON       CLOUDY    43  34  70 W5        29.77F
6HR MIN TEMP:  43; 6HR MAX TEMP:  50;

CASPER         CLOUDY    43  31  62 SW14      29.78F
6HR MIN TEMP:  37; 6HR MAX TEMP:  44;

DOUGLAS        FAIR      33  31  92 CALM      29.79F
6HR MIN TEMP:  31; 6HR MAX TEMP:  41;


$$
WYZ021-027>030-104>119-301300-
SOUTHERN WYOMING

CITY           SKY/WX    TMP DP  RH WIND       PRES   REMARKS
EVANSTON       CLOUDY    38  28  67 SW13      29.87F WCI  30
6HR MIN TEMP:  37; 6HR MAX TEMP:  40; 6HR PCP: TRACE;

KEMMERER         N/A     32  32 100 CALM      29.88F FOG
FORT BRIDGER   CLOUDY    39  34  82 W5        29.90F
ROCK SPRINGS   LGT RAIN  40  30  67 W8        29.91S WCI  34
6HR MIN TEMP:  38; 6HR MAX TEMP:  42; 6HR PCP: TRACE;

DIXON          DRIZZLE   38  33  82 NE3       29.97F
RAWLINS        CLOUDY    39  31  72 W21       29.89F WCI  29
6HR MIN TEMP:  37; 6HR MAX TEMP:  40;

SARATOGA       CLOUDY    37  32  81 SW13G20   29.91F WCI  29
LARAMIE        FAIR      37  27  67 SW10      29.86F WCI  30
6HR MIN TEMP:  31; 6HR MAX TEMP:  37;

CHEYENNE       FAIR      37  27  67 NW7       29.83F WCI  32
6HR MIN TEMP:  33; 6HR MAX TEMP:  39;

TORRINGTON     FAIR      35  32  88 CALM      29.77F
6HR MIN TEMP:  34; 6HR MAX TEMP:  39;

PINE BLUFFS    FAIR      30  30 100 SW9       29.82F WCI  22

$$



USA.gov is the U.S. government's official web portal to all federal, state and local government web resources and services.